DW6927 Weather Reports


time (UTC)temp
C
wind
direction
speed
KPH
gust
KPH
rain 1hr
cm
rain 24hr
cm
rain mn
cm
humidity
%
barometer
mb
20260504070104 6 0 0.0 0.0 0.00 0.00 0.00 86 1017.2
20260504050551 7 0 0.0 0.0 0.00 0.00 0.00 81 1017.8
20260504045552 7 0 0.0 0.0 0.00 0.00 0.00 80 1017.5
20260504045052 7 0 0.0 0.0 0.00 0.00 0.00 79 1017.5
20260504044554 7 0 0.0 0.0 0.00 0.00 0.00 79 1017.4
20260504044052 7 0 0.0 0.0 0.00 0.00 0.00 79 1017.5
20260504043553 7 0 0.0 0.0 0.00 0.00 0.00 79 1017.5
20260504043054 7 0 0.0 0.0 0.00 0.00 0.00 79 1017.4
20260504042554 7 0 0.0 0.0 0.00 0.00 0.00 79 1017.4
20260504042052 7 0 0.0 0.0 0.00 0.00 0.00 79 1017.3
20260504041553 7 0 0.0 0.0 0.00 0.00 0.00 79 1017.4
20260504041055 7 0 0.0 0.0 0.00 0.00 0.00 77 1017.4
20260504040557 7 0 0.0 0.0 0.00 0.00 0.00 77 1017.5
20260504040059 7 0 0.0 0.0 0.00 0.00 0.00 77 1017.4
20260504035554 8 0 0.0 0.0 0.00 0.00 0.00 76 1017.0
20260504035054 8 0 0.0 0.0 0.00 0.00 0.00 76 1017.2
20260504034614 8 0 0.0 0.0 0.00 0.00 0.00 75 1017.3
20260504034054 8 0 0.0 0.0 0.00 0.00 0.00 75 1017.1
20260504033554 8 0 0.0 0.0 0.00 0.00 0.00 75 1017.1
20260504033104 8 0 0.0 0.0 0.00 0.00 0.00 75 1017.1
20260504032554 8 0 0.0 0.0 0.00 0.00 0.00 72 1016.9
20260504032054 8 0 0.0 0.0 0.00 0.00 0.00 71 1016.8
20260504031600 8 0 0.0 0.0 0.00 0.00 0.00 71 1016.9
20260504031055 9 0 0.0 0.0 0.00 0.00 0.00 72 1017.1
20260504030554 9 0 0.0 0.0 0.00 0.00 0.00 73 1017.1
20260504030059 9 0 0.0 0.0 0.00 0.00 0.00 72 1017.1
20260504025554 9 0 0.0 0.0 0.00 0.00 0.00 73 1017.2
20260504025054 10 0 0.0 0.0 0.00 0.00 0.00 72 1017.1
20260504024604 10 0 0.0 0.0 0.00 0.00 0.00 69 1017.1
20260504024055 10 0 0.0 0.0 0.00 0.00 0.00 69 1017.1
20260504023555 10 0 0.0 0.0 0.00 0.00 0.00 69 1017.1
20260504023059 10 0 0.0 0.0 0.00 0.00 0.00 70 1017.1
20260504022555 10 0 0.0 0.0 0.00 0.00 0.00 69 1017.1
20260504022054 10 0 0.0 0.0 0.00 0.00 0.00 69 1017.0
20260504021601 10 0 0.0 0.0 0.00 0.00 0.00 68 1017.1
20260504021056 11 0 0.0 0.0 0.00 0.00 0.00 67 1017.2
20260504020553 11 0 0.0 0.0 0.00 0.00 0.00 67 1017.1
20260504020059 11 0 0.0 0.0 0.00 0.00 0.00 66 1017.1
20260504015551 11 0 0.0 0.0 0.00 0.00 0.00 62 1016.7
20260504015051 11 0 0.0 0.0 0.00 0.00 0.00 60 1016.8
20260504014619 11 0 0.0 0.0 0.00 0.00 0.00 60 1016.7
20260504014054 11 0 0.0 0.0 0.00 0.00 0.00 61 1016.6
20260504013557 11 0 0.0 0.0 0.00 0.00 0.00 61 1016.7
20260504013104 11 0 0.0 0.0 0.00 0.00 0.00 61 1016.7
20260504012554 11 0 0.0 0.0 0.00 0.00 0.00 61 1016.8
20260504012054 12 0 0.0 0.0 0.00 0.00 0.00 61 1016.6
20260504011602 12 0 0.0 0.0 0.00 0.00 0.00 62 1016.6
20260504011050 12 0 0.0 0.0 0.00 0.00 0.00 60 1016.6
20260504010550 12 0 0.0 0.0 0.00 0.00 0.00 60 1016.5
20260504010101 12 0 0.0 0.0 0.00 0.00 0.00 58 1016.7
20260504005551 12 0 0.0 0.0 0.00 0.00 0.00 57 1016.5
20260504005051 12 0 0.0 0.0 0.00 0.00 0.00 55 1016.4
20260504004555 12 0 0.0 0.0 0.00 0.00 0.00 55 1016.4
20260504004050 13 0 0.0 0.0 0.00 0.00 0.00 54 1016.4
20260504003550 13 0 0.0 0.0 0.00 0.00 0.00 54 1016.3
20260504003059 13 0 0.0 0.0 0.00 0.00 0.00 53 1016.3
20260504002555 13 0 0.0 0.0 0.00 0.00 0.00 52 1016.1
20260504002050 14 0 0.0 0.0 0.00 0.00 0.00 53 1016.2
20260504001558 14 0 0.0 0.0 0.00 0.00 0.00 54 1016.2
20260504001054 14 0 0.0 0.0 0.00 0.00 0.00 53 1016.2
20260504000553 15 0 0.0 0.0 0.00 0.00 0.00 51 1016.2
20260504000056 15 0 0.0 1.6 0.00 0.00 0.00 50 1016.1
20260503235554 15 0 0.0 1.6 0.00 0.00 0.00 49 1016.2
20260503235057 15 0 0.0 1.6 0.00 0.00 0.00 49 1016.2
20260503234554 15 326 0.0 1.6 0.00 0.00 0.00 49 1016.1
20260503234051 16 0 0.0 1.6 0.00 0.00 0.00 48 1016.2
20260503233551 16 0 0.0 1.6 0.00 0.00 0.00 49 1016.1
20260503233055 16 0 0.0 1.6 0.00 0.00 0.00 47 1016.1
20260503232551 16 0 0.0 3.2 0.00 0.00 0.00 48 1016.1
20260503232054 16 0 0.0 3.2 0.00 0.00 0.00 47 1016.2
20260503231555 16 0 0.0 3.2 0.00 0.00 0.00 44 1016.0
20260503231052 16 0 0.0 3.2 0.00 0.00 0.00 42 1016.0
20260503230551 16 332 0.0 3.2 0.00 0.00 0.00 42 1016.2
20260503230058 17 309 0.0 3.2 0.00 0.00 0.00 41 1016.2
20260503225554 17 305 0.0 3.2 0.00 0.00 0.00 43 1016.0
20260503225054 17 0 0.0 3.2 0.00 0.00 0.00 38 1016.1
20260503224554 17 0 0.0 3.2 0.00 0.00 0.00 39 1016.1
20260503224054 17 0 0.0 3.2 0.00 0.00 0.00 42 1016.2
20260503223554 17 0 0.0 4.8 0.00 0.00 0.00 40 1016.0
20260503223053 17 0 0.0 4.8 0.00 0.00 0.00 37 1016.2
20260503222553 17 315 0.0 4.8 0.00 0.00 0.00 40 1016.1
20260503222053 17 0 0.0 4.8 0.00 0.00 0.00 36 1016.1
20260503221558 17 277 1.6 4.8 0.00 0.00 0.00 35 1016.1
20260503221054 17 306 1.6 4.8 0.00 0.00 0.00 37 1016.3
20260503220554 17 306 1.6 4.8 0.00 0.00 0.00 36 1016.2
20260503220057 17 313 0.0 4.8 0.00 0.00 0.00 35 1016.2
20260503215553 17 0 1.6 4.8 0.00 0.00 0.00 34 1016.2
20260503215054 17 306 1.6 4.8 0.00 0.00 0.00 36 1016.2
20260503214557 17 0 1.6 4.8 0.00 0.00 0.00 36 1016.3
20260503214054 18 0 1.6 4.8 0.00 0.00 0.00 37 1016.2
20260503213554 18 280 1.6 4.8 0.00 0.00 0.00 37 1016.3
20260503213111 18 323 1.6 4.8 0.00 0.00 0.00 38 1016.4
20260503212558 18 290 0.0 4.8 0.00 0.00 0.00 38 1016.2
20260503212053 18 352 0.0 4.8 0.00 0.00 0.00 35 1016.4
20260503211555 18 137 0.0 4.8 0.00 0.00 0.00 37 1016.4
20260503211053 18 47 1.6 4.8 0.00 0.00 0.00 35 1016.4
20260503210554 18 0 0.0 4.8 0.00 0.00 0.00 34 1016.5
20260503205555 18 0 1.6 6.4 0.00 0.00 0.00 34 1016.6
20260503205056 18 294 1.6 6.4 0.00 0.00 0.00 35 1016.6
20260503204554 18 309 1.6 6.4 0.00 0.00 0.00 35 1016.5
20260503204058 19 169 3.2 6.4 0.00 0.00 0.00 34 1016.6
20260503203554 19 299 0.0 6.4 0.00 0.00 0.00 34 1016.6
20260503203102 19 239 0.0 4.8 0.00 0.00 0.00 34 1016.7
20260503202554 19 259 1.6 6.4 0.00 0.00 0.00 34 1016.8
20260503202054 19 360 1.6 6.4 0.00 0.00 0.00 35 1017.0
20260503201556 19 236 0.0 4.8 0.00 0.00 0.00 36 1017.2
20260503201054 19 352 0.0 4.8 0.00 0.00 0.00 36 1017.2
20260503200557 18 0 1.6 4.8 0.00 0.00 0.00 37 1017.1
20260503195555 19 225 3.2 6.4 0.00 0.00 0.00 35 1017.2
20260503195054 19 284 1.6 4.8 0.00 0.00 0.00 35 1017.4
20260503194600 19 323 1.6 4.8 0.00 0.00 0.00 37 1017.5
20260503194058 19 339 1.6 4.8 0.00 0.00 0.00 35 1017.5
20260503193555 18 38 0.0 6.4 0.00 0.00 0.00 39 1017.4
20260503193101 18 0 1.6 6.4 0.00 0.00 0.00 35 1017.7
20260503192554 18 0 1.6 6.4 0.00 0.00 0.00 35 1017.8
20260503192051 18 304 1.6 6.4 0.00 0.00 0.00 33 1017.9
20260503191602 18 275 1.6 4.8 0.00 0.00 0.00 36 1017.9
20260503191054 18 0 1.6 6.4 0.00 0.00 0.00 35 1018.0
20260503190551 18 307 1.6 6.4 0.00 0.00 0.00 33 1017.9
20260503190110 18 306 1.6 6.4 0.00 0.00 0.00 32 1018.0
20260503185550 19 0 1.6 4.8 0.00 0.00 0.00 38 1018.0
20260503185058 18 0 0.0 3.2 0.00 0.00 0.00 42 1018.0
20260503184609 18 0 0.0 3.2 0.00 0.00 0.00 40 1018.1
20260503184054 18 0 0.0 4.8 0.00 0.00 0.00 38 1018.2
20260503183554 17 0 0.0 4.8 0.00 0.00 0.00 38 1018.3
20260503183111 18 287 1.6 4.8 0.00 0.00 0.00 36 1018.3
20260503182556 17 317 1.6 4.8 0.00 0.00 0.00 44 1018.4
20260503182052 17 5 1.6 4.8 0.00 0.00 0.00 40 1018.4
20260503181608 17 298 1.6 4.8 0.00 0.00 0.00 39 1018.5
20260503181050 17 215 1.6 6.4 0.00 0.00 0.00 44 1018.4
20260503180554 17 157 1.6 11.3 0.00 0.00 0.00 41 1018.5
20260503180058 17 32 3.2 11.3 0.00 0.00 0.00 44 1018.6
20260503175550 17 0 1.6 9.7 0.00 0.00 0.00 42 1018.6
20260503175054 17 63 1.6 9.7 0.00 0.00 0.00 43 1018.6
20260503174554 17 253 1.6 6.4 0.00 0.00 0.00 44 1018.5
20260503174054 17 326 1.6 6.4 0.00 0.00 0.00 44 1018.6
20260503173554 17 0 0.0 4.8 0.00 0.00 0.00 42 1018.6
20260503173101 17 165 1.6 4.8 0.00 0.00 0.00 46 1018.7
20260503172554 17 284 0.0 4.8 0.00 0.00 0.00 48 1018.8
20260503172053 17 241 1.6 6.4 0.00 0.00 0.00 49 1019.0
20260503171555 17 15 1.6 6.4 0.00 0.00 0.00 47 1019.0
20260503171053 17 0 1.6 4.8 0.00 0.00 0.00 47 1018.9
20260503170554 16 40 1.6 4.8 0.00 0.00 0.00 47 1019.1
20260503150553 13 286 1.6 4.8 0.00 0.00 0.00 57 1020.0
20260503131053 10 0 0.0 1.6 0.00 0.00 0.00 78 1019.9
20260503130553 10 0 0.0 1.6 0.00 0.00 0.00 80 1019.8
20260503110553 3 0 0.0 0.0 0.00 0.00 0.00 88 1018.6
20260503081630 6 0 0.0 1.6 0.00 0.00 0.00 82 1017.1
20260503081053 6 0 0.0 1.6 0.00 0.00 0.00 82 1016.9
20260503080553 6 0 0.0 1.6 0.00 0.00 0.00 82 1017.0